| time (UTC) | temp F | wind direction | speed knots | gust knots | rain 1hr in | rain 24hr in | rain mn in | humidity % | barometer mb |
| 20260508071505 | 45 | 346 | 0.0 | 4.3 | 0.00 | 0.00 | 0.00 | 60 | 1003.9 |
| 20260508070005 | 45 | 351 | 0.9 | 3.5 | 0.00 | 0.00 | 0.00 | 61 | 1003.9 |
| 20260508064501 | 46 | 42 | 1.7 | 5.2 | 0.00 | 0.00 | 0.00 | 57 | 1004.0 |
| 20260508063101 | 46 | 26 | 1.7 | 7.0 | 0.00 | 0.00 | 0.00 | 59 | 1003.9 |
| 20260508061605 | 46 | 11 | 5.2 | 8.7 | 0.00 | 0.00 | 0.00 | 57 | 1003.8 |
| 20260508060116 | 46 | 327 | 4.3 | 8.7 | 0.00 | 0.00 | 0.00 | 53 | 1004.0 |
| 20260508054638 | 46 | 336 | 2.6 | 8.7 | 0.00 | 0.01 | 0.00 | 54 | 1004.3 |
| 20260508053054 | 46 | 10 | 1.7 | 8.7 | 0.00 | 0.01 | 0.00 | 57 | 1004.3 |
| 20260508051550 | 46 | 360 | 2.6 | 7.8 | 0.00 | 0.01 | 0.00 | 60 | 1004.2 |
| 20260508050049 | 47 | 326 | 1.7 | 7.8 | 0.00 | 0.01 | 0.00 | 52 | 1004.5 |
| 20260508044546 | 47 | 360 | 1.7 | 7.8 | 0.00 | 0.09 | 0.00 | 51 | 1004.7 |
| 20260508043047 | 47 | 324 | 1.7 | 7.0 | 0.00 | 0.09 | 0.00 | 52 | 1004.7 |
| 20260508041544 | 47 | 325 | 0.9 | 5.2 | 0.00 | 0.09 | 0.00 | 53 | 1004.7 |
| 20260508040039 | 46 | 5 | 0.9 | 2.6 | 0.00 | 0.09 | 0.00 | 54 | 1004.8 |
| 20260508034546 | 47 | 9 | 0.9 | 5.2 | 0.00 | 0.09 | 0.09 | 53 | 1004.8 |
| 20260508033037 | 47 | 348 | 0.0 | 3.5 | 0.00 | 0.09 | 0.09 | 53 | 1004.7 |
| 20260508031536 | 48 | 345 | 1.7 | 5.2 | 0.00 | 0.09 | 0.09 | 50 | 1004.7 |
| 20260508030039 | 48 | 336 | 0.9 | 3.5 | 0.00 | 0.09 | 0.09 | 51 | 1004.8 |
| 20260508024542 | 49 | 5 | 0.0 | 4.3 | 0.00 | 0.09 | 0.09 | 51 | 1004.8 |
| 20260508023034 | 50 | 341 | 3.5 | 8.7 | 0.00 | 0.09 | 0.09 | 50 | 1004.5 |
| 20260508021534 | 50 | 355 | 2.6 | 7.8 | 0.00 | 0.09 | 0.09 | 51 | 1004.4 |
| 20260508020034 | 50 | 13 | 1.7 | 9.6 | 0.00 | 0.09 | 0.09 | 49 | 1004.2 |
| 20260508014537 | 51 | 342 | 4.3 | 10.4 | 0.00 | 0.10 | 0.09 | 48 | 1004.0 |
| 20260508013032 | 51 | 30 | 1.7 | 7.0 | 0.00 | 0.10 | 0.09 | 50 | 1003.8 |
| 20260508011534 | 51 | 34 | 1.7 | 4.3 | 0.00 | 0.10 | 0.09 | 51 | 1003.9 |
| 20260508010045 | 51 | 9 | 0.9 | 5.2 | 0.00 | 0.10 | 0.09 | 51 | 1003.8 |
| 20260508004532 | 52 | 26 | 1.7 | 7.8 | 0.00 | 0.13 | 0.09 | 50 | 1003.4 |
| 20260508003027 | 51 | 344 | 0.9 | 4.3 | 0.00 | 0.13 | 0.09 | 56 | 1003.0 |
| 20260508001524 | 49 | 360 | 0.0 | 1.7 | 0.00 | 0.13 | 0.09 | 76 | 1002.9 |
| 20260508000023 | 48 | 294 | 0.9 | 4.3 | 0.00 | 0.13 | 0.09 | 81 | 1002.7 |
| 20260507234523 | 47 | 251 | 0.9 | 3.5 | 0.00 | 0.17 | 0.09 | 85 | 1002.7 |
| 20260507233023 | 47 | 211 | 0.0 | 4.3 | 0.00 | 0.17 | 0.09 | 85 | 1002.6 |
| 20260507231523 | 47 | 230 | 6.1 | 7.8 | 0.00 | 0.17 | 0.09 | 85 | 1002.3 |
| 20260507230026 | 48 | 242 | 5.2 | 8.7 | 0.00 | 0.17 | 0.09 | 84 | 1002.1 |
| 20260507224522 | 48 | 240 | 8.7 | 12.2 | 0.00 | 0.28 | 0.09 | 83 | 1001.9 |
| 20260507223021 | 49 | 236 | 9.6 | 10.4 | 0.00 | 0.28 | 0.09 | 80 | 1001.7 |
| 20260507221520 | 49 | 245 | 9.6 | 13.0 | 0.00 | 0.28 | 0.09 | 81 | 1001.5 |
| 20260507220020 | 49 | 237 | 12.2 | 15.6 | 0.00 | 0.28 | 0.09 | 82 | 1001.5 |
| 20260507214521 | 49 | 237 | 12.2 | 16.5 | 0.00 | 0.38 | 0.09 | 81 | 1001.5 |
| 20260507213019 | 49 | 231 | 13.9 | 17.4 | 0.00 | 0.38 | 0.09 | 80 | 1001.5 |
| 20260507211532 | 49 | 235 | 14.8 | 18.2 | 0.00 | 0.38 | 0.09 | 81 | 1001.5 |
| 20260507210018 | 49 | 234 | 13.9 | 16.5 | 0.00 | 0.38 | 0.09 | 81 | 1001.3 |
| 20260507204522 | 49 | 236 | 13.0 | 17.4 | 0.00 | 0.40 | 0.09 | 81 | 1001.2 |
| 20260507203021 | 49 | 237 | 14.8 | 16.5 | 0.00 | 0.40 | 0.09 | 81 | 1001.1 |
| 20260507201516 | 49 | 238 | 13.9 | 17.4 | 0.00 | 0.40 | 0.09 | 82 | 1001.2 |
| 20260507200016 | 49 | 239 | 13.9 | 16.5 | 0.00 | 0.40 | 0.09 | 81 | 1001.3 |
| 20260507194515 | 49 | 239 | 12.2 | 14.8 | 0.00 | 0.42 | 0.09 | 81 | 1001.5 |
| 20260507193013 | 49 | 229 | 12.2 | 14.8 | 0.00 | 0.42 | 0.09 | 81 | 1001.6 |
| 20260507191513 | 49 | 225 | 11.3 | 14.8 | 0.00 | 0.42 | 0.09 | 81 | 1001.7 |
| 20260507190014 | 49 | 227 | 10.4 | 13.0 | 0.00 | 0.42 | 0.09 | 80 | 1001.7 |
| 20260507184514 | 49 | 229 | 10.4 | 13.9 | 0.00 | 0.42 | 0.09 | 79 | 1001.9 |
| 20260507183028 | 49 | 229 | 11.3 | 13.9 | 0.00 | 0.42 | 0.09 | 82 | 1002.1 |
| 20260507181511 | 49 | 240 | 11.3 | 14.8 | 0.00 | 0.42 | 0.09 | 82 | 1002.1 |
| 20260507180010 | 49 | 240 | 10.4 | 13.0 | 0.00 | 0.42 | 0.09 | 81 | 1002.2 |
| 20260507174515 | 49 | 245 | 10.4 | 13.9 | 0.00 | 0.42 | 0.09 | 82 | 1002.4 |
| 20260507173010 | 49 | 253 | 12.2 | 15.6 | 0.00 | 0.42 | 0.09 | 83 | 1002.5 |
| 20260507171509 | 48 | 244 | 12.2 | 14.8 | 0.00 | 0.42 | 0.09 | 86 | 1002.5 |
| 20260507170009 | 48 | 243 | 11.3 | 13.0 | 0.00 | 0.42 | 0.09 | 87 | 1002.4 |
| 20260507164508 | 48 | 234 | 12.2 | 14.8 | 0.00 | 0.42 | 0.09 | 86 | 1002.5 |
| 20260507163008 | 49 | 221 | 9.6 | 13.9 | 0.00 | 0.42 | 0.09 | 84 | 1002.6 |
| 20260507161508 | 49 | 244 | 13.0 | 14.8 | 0.00 | 0.42 | 0.09 | 82 | 1002.7 |
| 20260507160017 | 49 | 244 | 13.9 | 15.6 | 0.00 | 0.42 | 0.09 | 80 | 1002.9 |
| 20260507154507 | 48 | 240 | 12.2 | 13.9 | 0.00 | 0.42 | 0.09 | 82 | 1003.1 |
| 20260507153007 | 49 | 231 | 7.8 | 10.4 | 0.00 | 0.42 | 0.09 | 82 | 1003.2 |
| 20260507151505 | 48 | 238 | 7.8 | 9.6 | 0.00 | 0.42 | 0.09 | 84 | 1003.3 |
| 20260507150005 | 48 | 233 | 5.2 | 7.0 | 0.00 | 0.42 | 0.09 | 86 | 1003.3 |
| 20260507144501 | 48 | 226 | 3.5 | 6.1 | 0.00 | 0.42 | 0.09 | 87 | 1003.5 |
| 20260507143100 | 48 | 217 | 4.3 | 7.0 | 0.00 | 0.42 | 0.09 | 86 | 1003.5 |
| 20260507141559 | 48 | 230 | 6.1 | 7.8 | 0.00 | 0.42 | 0.09 | 87 | 1003.7 |
| 20260507140105 | 48 | 236 | 5.2 | 6.1 | 0.00 | 0.42 | 0.09 | 87 | 1003.9 |
| 20260507134551 | 48 | 223 | 4.3 | 5.2 | 0.00 | 0.42 | 0.09 | 82 | 1003.7 |
| 20260507133046 | 51 | 257 | 1.7 | 2.6 | 0.00 | 0.42 | 0.09 | 77 | 1003.8 |
| 20260507131542 | 50 | 264 | 1.7 | 2.6 | 0.00 | 0.42 | 0.09 | 78 | 1003.9 |
| 20260507130049 | 50 | 299 | 0.9 | 1.7 | 0.00 | 0.42 | 0.09 | 82 | 1004.1 |
| 20260507124547 | 50 | 346 | 0.0 | 1.7 | 0.00 | 0.42 | 0.09 | 87 | 1004.3 |
| 20260507123030 | 49 | 336 | 2.6 | 5.2 | 0.00 | 0.42 | 0.09 | 83 | 1004.0 |
| 20260507121524 | 48 | 326 | 2.6 | 4.3 | 0.00 | 0.42 | 0.09 | 85 | 1004.2 |
| 20260507120023 | 48 | 328 | 1.7 | 4.3 | 0.00 | 0.42 | 0.09 | 86 | 1003.9 |
| 20260507114519 | 48 | 325 | 0.9 | 2.6 | 0.00 | 0.42 | 0.09 | 90 | 1004.1 |
| 20260507113019 | 47 | 360 | 0.0 | 1.7 | 0.00 | 0.42 | 0.09 | 89 | 1004.0 |
| 20260507111518 | 47 | 360 | 0.0 | 1.7 | 0.00 | 0.42 | 0.09 | 90 | 1004.3 |
| 20260507110027 | 46 | 360 | 0.0 | 1.7 | 0.00 | 0.42 | 0.09 | 90 | 1004.4 |
| 20260507104515 | 46 | 298 | 0.0 | 1.7 | 0.00 | 0.42 | 0.09 | 90 | 1004.6 |
| 20260507103013 | 46 | 304 | 0.9 | 1.7 | 0.00 | 0.42 | 0.09 | 90 | 1004.8 |
| 20260507101512 | 46 | 339 | 0.0 | 1.7 | 0.00 | 0.42 | 0.09 | 91 | 1004.0 |
| 20260507100018 | 46 | 315 | 0.0 | 2.6 | 0.00 | 0.42 | 0.09 | 91 | 1004.1 |
| 20260507094509 | 46 | 327 | 2.6 | 5.2 | 0.00 | 0.42 | 0.09 | 91 | 1003.7 |
| 20260507093009 | 46 | 355 | 2.6 | 7.0 | 0.00 | 0.42 | 0.09 | 91 | 1003.3 |
| 20260507091507 | 47 | 360 | 2.6 | 4.3 | 0.00 | 0.42 | 0.09 | 92 | 1003.7 |
| 20260507090007 | 47 | 355 | 0.9 | 4.3 | 0.00 | 0.42 | 0.09 | 92 | 1003.8 |
| 20260507084508 | 48 | 336 | 1.7 | 5.2 | 0.00 | 0.42 | 0.09 | 92 | 1003.6 |
| 20260507083003 | 48 | 355 | 0.9 | 4.3 | 0.00 | 0.42 | 0.09 | 93 | 1003.5 |
| 20260507081505 | 48 | 351 | 0.0 | 3.5 | 0.00 | 0.42 | 0.09 | 93 | 1003.4 |
| 20260507080001 | 48 | 328 | 1.7 | 7.8 | 0.00 | 0.42 | 0.09 | 93 | 1003.4 |
| 20260507074615 | 48 | 334 | 1.7 | 5.2 | 0.00 | 0.42 | 0.09 | 94 | 1003.4 |
| 20260507073059 | 48 | 355 | 0.9 | 3.5 | 0.00 | 0.42 | 0.09 | 93 | 1003.0 |
| 20260507071556 | 48 | 345 | 0.9 | 2.6 | 0.00 | 0.42 | 0.09 | 94 | 1002.7 |